Regional Weather Roundup
Issued by NWS Charleston, WV

Home | Current Version | Previous Version | Graphics & Text | Print | Product List | Glossary On
Versions: 1 2 3 4 5 6 7 8 9 10 11 12 13 14 15 16 17 18 19 20 21 22 23 24 25 26 27 28 29 30 31 32 33 34 35 36 37 38 39 40 41 42 43 44 45 46 47 48 49 50
876
ASUS41 KRLX 220010
RWRRLX
CRWRWRRLX ALL
West Virginia Regional Weather Roundup
National Weather Service Charleston WV
Issued by National Weather Service Pittsburgh PA
700 PM EST SAT JAN 21 2017

Note: "fair" indicates few or no clouds below 12,000 feet with no
significant weather and/or obstructions to visibility.

WVZ003-220100-
Northern Panhandle of West Virginia

CITY           SKY/WX    TMP DP  RH WIND       PRES   REMARKS
WHEELING       LGT RAIN  59  49  69 W6        29.72R
$$

WVZ009-220100-
Northwest West Virginia

CITY           SKY/WX    TMP DP  RH WIND       PRES   REMARKS
PARKERSBURG    LGT RAIN  57  52  83 CALM      29.74R
$$

WVZ006-220100-
Western West Virginia

CITY           SKY/WX    TMP DP  RH WIND       PRES   REMARKS
HUNTINGTON     CLOUDY    59  51  75 E3        29.68R
$$

WVZ015-220100-
West Central West Virginia

CITY           SKY/WX    TMP DP  RH WIND       PRES   REMARKS
CHARLESTON     DRIZZLE   58  51  78 E5        29.69F
$$

WVZ031-220100-
North Central West Virginia

CITY           SKY/WX    TMP DP  RH WIND       PRES   REMARKS
CLARKSBURG     CLOUDY    59  49  69 CALM      29.72R
MORGANTOWN     CLOUDY    59  48  67 CALM      29.72R
$$

WVZ035-042-220100-
South Central West Virginia

CITY           SKY/WX    TMP DP  RH WIND       PRES   REMARKS
BECKLEY        CLOUDY    52  45  77 CALM      29.74R
BLUEFIELD      LGT RAIN  52  46  80 E3        29.74R
$$

WVZ045-220100-
Greenbrier Valley of West Virginia

CITY           SKY/WX    TMP DP  RH WIND       PRES   REMARKS
LEWISBURG      CLOUDY    50  47  91 CALM      29.75R
$$

WVZ047-220100-
Northern Mountains of West Virginia

CITY           SKY/WX    TMP DP  RH WIND       PRES   REMARKS
ELKINS         MOCLDY    51  46  83 NW3       29.73S
$$

WVZ052-220100-
Eastern Panhandle of West Virginia

CITY           SKY/WX    TMP DP  RH WIND       PRES   REMARKS
MARTINSBURG    FOG       46  46 100 NW3       29.79S VSB 1
PETERSBURG     MOCLDY    50  46  87 N5        29.75F
$$




USA.gov is the U.S. government's official web portal to all federal, state and local government web resources and services.